Time,TemperatureF,DewpointF,PressureIn,WindDirection,WindDirectionDegrees,WindSpeedMPH,WindSpeedGustMPH,Humidity,HourlyPrecipIn,Conditions,Clouds,dailyrainin,SoftwareType,DateUTC
2013-02-24 00:04:00,38.9,38.0,29.83,North,9,0.0,4.0,98,0.00,,,0.00,weatherlink.com 1.10,2013-02-24 05:04:00,
2013-02-24 00:19:00,38.9,38.0,29.82,North,5,0.0,0.0,98,0.00,,,0.00,weatherlink.com 1.10,2013-02-24 05:19:00,
2013-02-24 00:34:00,39.0,39.0,29.82,North,5,1.0,2.0,98,0.00,,,0.00,weatherlink.com 1.10,2013-02-24 05:34:00,
2013-02-24 00:49:00,39.0,39.0,29.82,North,5,0.0,0.0,98,0.00,,,0.00,weatherlink.com 1.10,2013-02-24 05:49:00,
2013-02-24 01:04:00,38.8,38.0,29.83,NW,321,0.0,3.0,98,0.00,,,0.00,weatherlink.com 1.10,2013-02-24 06:04:00,
2013-02-24 01:19:00,38.8,38.0,29.83,NW,322,1.0,3.0,98,0.00,,,0.00,weatherlink.com 1.10,2013-02-24 06:19:00,
2013-02-24 01:35:00,38.8,38.0,29.84,NW,309,2.0,4.0,98,0.00,,,0.00,weatherlink.com 1.10,2013-02-24 06:35:00,
2013-02-24 01:50:00,38.6,38.0,29.85,NW,315,2.0,4.0,97,0.00,,,0.00,weatherlink.com 1.10,2013-02-24 06:50:00,
2013-02-24 02:05:00,38.5,38.0,29.85,NW,319,1.0,4.0,97,0.00,,,0.00,weatherlink.com 1.10,2013-02-24 07:05:00,
2013-02-24 02:20:00,38.5,38.0,29.85,NW,319,1.0,2.0,97,0.00,,,0.00,weatherlink.com 1.10,2013-02-24 07:20:00,
2013-02-24 02:35:00,38.4,38.0,29.84,NW,319,0.0,0.0,98,0.00,,,0.00,weatherlink.com 1.10,2013-02-24 07:35:00,
2013-02-24 02:50:00,38.2,38.0,29.84,North,5,0.0,3.0,98,0.00,,,0.00,weatherlink.com 1.10,2013-02-24 07:50:00,
2013-02-24 03:05:00,38.2,38.0,29.83,North,5,0.0,2.0,98,0.00,,,0.00,weatherlink.com 1.10,2013-02-24 08:05:00,
2013-02-24 03:20:00,38.2,38.0,29.82,North,11,0.0,2.0,98,0.00,,,0.00,weatherlink.com 1.10,2013-02-24 08:20:00,
2013-02-24 03:35:00,38.0,38.0,29.80,NNE,22,3.0,5.0,98,0.00,,,0.00,weatherlink.com 1.10,2013-02-24 08:35:00,
2013-02-24 03:50:00,37.9,37.0,29.81,NNW,339,0.0,4.0,97,0.00,,,0.00,weatherlink.com 1.10,2013-02-24 08:50:00,
2013-02-24 04:05:00,37.7,37.0,29.80,NW,309,0.0,2.0,98,0.00,,,0.00,weatherlink.com 1.10,2013-02-24 09:05:00,
2013-02-24 04:20:00,37.6,37.0,29.80,NW,309,0.0,2.0,98,0.00,,,0.00,weatherlink.com 1.10,2013-02-24 09:20:00,
2013-02-24 04:35:00,37.6,37.0,29.80,North,355,1.0,2.0,97,0.00,,,0.00,weatherlink.com 1.10,2013-02-24 09:35:00,
2013-02-24 04:50:00,37.5,37.0,29.81,NW,317,2.0,4.0,98,0.00,,,0.00,weatherlink.com 1.10,2013-02-24 09:50:00,
2013-02-24 05:05:00,37.6,37.0,29.81,NW,321,0.0,3.0,98,0.00,,,0.00,weatherlink.com 1.10,2013-02-24 10:05:00,
2013-02-24 05:20:00,37.6,37.0,29.82,NW,314,0.0,3.0,98,0.00,,,0.00,weatherlink.com 1.10,2013-02-24 10:20:00,
2013-02-24 05:35:00,37.5,37.0,29.82,NW,304,0.0,2.0,98,0.00,,,0.00,weatherlink.com 1.10,2013-02-24 10:35:00,
2013-02-24 05:50:00,37.4,37.0,29.82,NW,313,0.0,1.0,97,0.00,,,0.00,weatherlink.com 1.10,2013-02-24 10:50:00,
2013-02-24 06:05:00,37.2,37.0,29.82,NW,317,2.0,3.0,98,0.00,,,0.00,weatherlink.com 1.10,2013-02-24 11:05:00,
2013-02-24 06:20:00,37.1,37.0,29.82,WNW,303,3.0,4.0,98,0.00,,,0.00,weatherlink.com 1.10,2013-02-24 11:20:00,
2013-02-24 06:35:00,37.4,37.0,29.83,WNW,296,0.0,7.0,98,0.00,,,0.00,weatherlink.com 1.10,2013-02-24 11:35:00,
2013-02-24 06:50:00,37.6,37.0,29.83,NW,321,2.0,5.0,98,0.01,,,0.01,weatherlink.com 1.10,2013-02-24 11:50:00,
2013-02-24 07:05:00,37.6,37.0,29.84,WNW,288,1.0,5.0,98,0.01,,,0.01,weatherlink.com 1.10,2013-02-24 12:05:00,
2013-02-24 07:20:00,37.8,37.0,29.84,NNW,328,3.0,7.0,98,0.01,,,0.01,weatherlink.com 1.10,2013-02-24 12:20:00,
2013-02-24 07:50:00,37.9,37.0,29.84,WNW,291,2.0,5.0,98,0.00,,,0.01,weatherlink.com 1.10,2013-02-24 12:50:00,
2013-02-24 08:05:00,37.8,37.0,29.84,WNW,298,2.0,5.0,98,0.00,,,0.01,weatherlink.com 1.10,2013-02-24 13:05:00,
2013-02-24 08:20:00,38.6,38.0,29.84,NNW,332,2.0,7.0,97,0.00,,,0.01,weatherlink.com 1.10,2013-02-24 13:20:00,
2013-02-24 08:35:00,39.1,38.0,29.85,NW,319,4.0,7.0,96,0.00,,,0.01,weatherlink.com 1.10,2013-02-24 13:35:00,
2013-02-24 08:50:00,39.8,38.0,29.85,WNW,297,0.0,8.0,93,0.00,,,0.01,weatherlink.com 1.10,2013-02-24 13:50:00,
2013-02-24 09:05:00,40.0,38.0,29.85,WNW,292,1.0,9.0,92,0.00,,,0.01,weatherlink.com 1.10,2013-02-24 14:05:00,
2013-02-24 09:20:00,40.1,37.0,29.85,NW,319,6.0,13.0,89,0.00,,,0.01,weatherlink.com 1.10,2013-02-24 14:20:00,
2013-02-24 09:35:00,39.9,37.0,29.86,NW,309,6.0,13.0,89,0.00,,,0.01,weatherlink.com 1.10,2013-02-24 14:35:00,
2013-02-24 09:50:00,40.5,37.0,29.87,NW,311,6.0,14.0,87,0.00,,,0.01,weatherlink.com 1.10,2013-02-24 14:50:00,
2013-02-24 10:05:00,40.8,35.0,29.87,NW,316,13.0,19.0,81,0.00,,,0.01,weatherlink.com 1.10,2013-02-24 15:05:00,
2013-02-24 10:20:00,41.8,35.0,29.87,NW,321,9.0,16.0,78,0.00,,,0.01,weatherlink.com 1.10,2013-02-24 15:20:00,
2013-02-24 10:35:00,40.7,34.0,29.88,NW,321,7.0,16.0,77,0.00,,,0.01,weatherlink.com 1.10,2013-02-24 15:35:00,
2013-02-24 10:50:00,41.5,33.0,29.87,NW,305,11.0,15.0,73,0.00,,,0.01,weatherlink.com 1.10,2013-02-24 15:50:00,
2013-02-24 11:05:00,42.4,33.0,29.88,WNW,288,10.0,17.0,69,0.00,,,0.01,weatherlink.com 1.10,2013-02-24 16:05:00,
2013-02-24 11:20:00,42.8,33.0,29.88,NNW,330,4.0,21.0,69,0.00,,,0.01,weatherlink.com 1.10,2013-02-24 16:20:00,
2013-02-24 11:35:00,42.4,32.0,29.88,SW,234,5.0,21.0,67,0.00,,,0.01,weatherlink.com 1.10,2013-02-24 16:35:00,
2013-02-24 11:50:00,42.9,32.0,29.88,NW,317,11.0,15.0,66,0.00,,,0.01,weatherlink.com 1.10,2013-02-24 16:50:00,
2013-02-24 12:06:00,43.0,30.0,29.87,NW,312,3.0,25.0,61,0.00,,,0.01,weatherlink.com 1.10,2013-02-24 17:06:00,
2013-02-24 12:21:00,42.9,29.0,29.87,West,265,15.0,18.0,59,0.00,,,0.01,weatherlink.com 1.10,2013-02-24 17:21:00,
2013-02-24 12:36:00,42.7,30.0,29.87,NW,319,7.0,20.0,61,0.00,,,0.01,weatherlink.com 1.10,2013-02-24 17:36:00,
2013-02-24 12:51:00,42.4,29.0,29.87,NW,324,14.0,19.0,59,0.00,,,0.01,weatherlink.com 1.10,2013-02-24 17:51:00,
2013-02-24 13:06:00,42.3,28.0,29.87,WNW,288,8.0,21.0,57,0.00,,,0.01,weatherlink.com 1.10,2013-02-24 18:06:00,
2013-02-24 13:21:00,41.6,28.0,29.86,West,277,10.0,24.0,59,0.00,,,0.01,weatherlink.com 1.10,2013-02-24 18:21:00,
2013-02-24 13:36:00,41.9,29.0,29.87,NNW,329,17.0,19.0,60,0.00,,,0.01,weatherlink.com 1.10,2013-02-24 18:36:00,
2013-02-24 13:51:00,41.1,28.0,29.87,NW,304,16.0,18.0,60,0.00,,,0.01,weatherlink.com 1.10,2013-02-24 18:51:00,
2013-02-24 14:06:00,42.0,28.0,29.87,NW,310,6.0,23.0,57,0.00,,,0.01,weatherlink.com 1.10,2013-02-24 19:06:00,
2013-02-24 14:21:00,41.7,28.0,29.87,NNW,336,11.0,19.0,59,0.00,,,0.01,weatherlink.com 1.10,2013-02-24 19:21:00,
2013-02-24 14:36:00,41.0,27.0,29.88,NW,308,7.0,23.0,58,0.00,,,0.01,weatherlink.com 1.10,2013-02-24 19:36:00,
2013-02-24 14:51:00,40.7,26.0,29.89,WNW,300,14.0,23.0,57,0.00,,,0.01,weatherlink.com 1.10,2013-02-24 19:51:00,
2013-02-24 15:06:00,40.2,27.0,29.90,NNW,336,16.0,24.0,60,0.00,,,0.01,weatherlink.com 1.10,2013-02-24 20:06:00,
2013-02-24 15:21:00,40.3,27.0,29.90,NW,307,16.0,22.0,60,0.00,,,0.01,weatherlink.com 1.10,2013-02-24 20:21:00,
2013-02-24 15:35:00,39.8,26.0,29.91,NW,312,15.0,23.0,59,0.00,,,0.01,weatherlink.com 1.10,2013-02-24 20:35:00,
2013-02-24 15:51:00,38.4,25.0,29.92,NW,315,12.0,27.0,59,0.00,,,0.01,weatherlink.com 1.10,2013-02-24 20:51:00,
2013-02-24 16:06:00,38.6,24.0,29.93,NNW,327,8.0,24.0,57,0.00,,,0.01,weatherlink.com 1.10,2013-02-24 21:06:00,
2013-02-24 16:21:00,39.0,26.0,29.93,NW,318,9.0,19.0,59,0.00,,,0.01,weatherlink.com 1.10,2013-02-24 21:21:00,
2013-02-24 16:36:00,37.1,25.0,29.94,NW,310,5.0,21.0,63,0.00,,,0.01,weatherlink.com 1.10,2013-02-24 21:36:00,
2013-02-24 16:51:00,36.7,24.0,29.95,North,355,5.0,17.0,61,0.00,,,0.01,weatherlink.com 1.10,2013-02-24 21:51:00,
2013-02-24 17:06:00,36.5,24.0,29.95,NW,321,12.0,19.0,60,0.00,,,0.01,weatherlink.com 1.10,2013-02-24 22:06:00,
2013-02-24 17:21:00,36.1,24.0,29.96,NW,323,6.0,17.0,61,0.00,,,0.01,weatherlink.com 1.10,2013-02-24 22:21:00,
2013-02-24 17:36:00,36.0,23.0,29.97,West,279,5.0,18.0,60,0.00,,,0.01,weatherlink.com 1.10,2013-02-24 22:36:00,
2013-02-24 17:51:00,35.7,22.0,29.98,WNW,300,5.0,14.0,57,0.00,,,0.01,weatherlink.com 1.10,2013-02-24 22:51:00,
2013-02-24 18:06:00,35.2,22.0,29.98,WNW,296,1.0,15.0,59,0.00,,,0.01,weatherlink.com 1.10,2013-02-24 23:06:00,
2013-02-24 18:21:00,34.9,22.0,29.99,NW,324,4.0,16.0,59,0.00,,,0.01,weatherlink.com 1.10,2013-02-24 23:21:00,
2013-02-24 18:36:00,34.6,22.0,30.00,NW,325,7.0,10.0,60,0.00,,,0.01,weatherlink.com 1.10,2013-02-24 23:36:00,
2013-02-24 18:51:00,34.4,22.0,30.00,WNW,299,6.0,13.0,61,0.00,,,0.01,weatherlink.com 1.10,2013-02-24 23:51:00,
2013-02-24 19:06:00,33.9,22.0,30.01,WNW,286,3.0,13.0,62,0.00,,,0.01,weatherlink.com 1.10,2013-02-25 00:06:00,
2013-02-24 19:22:00,33.7,22.0,30.02,NW,312,3.0,8.0,63,0.00,,,0.01,weatherlink.com 1.10,2013-02-25 00:22:00,
2013-02-24 19:37:00,33.5,22.0,30.02,NW,321,8.0,9.0,63,0.00,,,0.01,weatherlink.com 1.10,2013-02-25 00:37:00,
2013-02-24 19:52:00,33.3,22.0,30.02,NW,319,2.0,13.0,63,0.00,,,0.01,weatherlink.com 1.10,2013-02-25 00:52:00,
2013-02-24 20:07:00,33.1,22.0,30.03,WNW,295,0.0,12.0,64,0.00,,,0.01,weatherlink.com 1.10,2013-02-25 01:07:00,
2013-02-24 20:22:00,32.8,22.0,30.04,West,277,3.0,7.0,65,0.00,,,0.01,weatherlink.com 1.10,2013-02-25 01:22:00,
2013-02-24 20:37:00,32.6,22.0,30.05,NNW,335,7.0,7.0,66,0.00,,,0.01,weatherlink.com 1.10,2013-02-25 01:37:00,
2013-02-24 20:52:00,32.5,22.0,30.05,WNW,301,4.0,7.0,66,0.00,,,0.01,weatherlink.com 1.10,2013-02-25 01:52:00,
2013-02-24 21:07:00,32.2,22.0,30.06,West,275,4.0,8.0,66,0.00,,,0.01,weatherlink.com 1.10,2013-02-25 02:07:00,
2013-02-24 21:22:00,32.5,21.0,30.06,NW,315,1.0,8.0,64,0.00,,,0.01,weatherlink.com 1.10,2013-02-25 02:22:00,
2013-02-24 21:37:00,32.4,22.0,30.06,NW,305,2.0,5.0,65,0.00,,,0.01,weatherlink.com 1.10,2013-02-25 02:37:00,
2013-02-24 21:52:00,32.1,22.0,30.07,West,259,4.0,8.0,66,0.00,,,0.01,weatherlink.com 1.10,2013-02-25 02:52:00,
2013-02-24 22:07:00,31.7,22.0,30.07,SW,227,2.0,8.0,67,0.00,,,0.01,weatherlink.com 1.10,2013-02-25 03:07:00,
2013-02-24 22:22:00,31.5,22.0,30.07,NW,304,1.0,7.0,67,0.00,,,0.01,weatherlink.com 1.10,2013-02-25 03:22:00,
2013-02-24 22:37:00,31.4,22.0,30.07,WNW,298,1.0,5.0,67,0.00,,,0.01,weatherlink.com 1.10,2013-02-25 03:37:00,
2013-02-24 22:52:00,31.0,22.0,30.07,West,275,2.0,4.0,68,0.00,,,0.01,weatherlink.com 1.10,2013-02-25 03:52:00,
2013-02-24 23:07:00,30.8,22.0,30.07,WNW,289,4.0,7.0,70,0.00,,,0.01,weatherlink.com 1.10,2013-02-25 04:07:00,
2013-02-24 23:22:00,31.1,22.0,30.07,West,260,1.0,8.0,68,0.00,,,0.01,weatherlink.com 1.10,2013-02-25 04:22:00,
2013-02-24 23:37:00,31.5,22.0,30.08,WNW,291,2.0,9.0,67,0.00,,,0.01,weatherlink.com 1.10,2013-02-25 04:37:00,
2013-02-24 23:52:00,31.4,22.0,30.09,WSW,257,0.0,8.0,67,0.00,,,0.01,weatherlink.com 1.10,2013-02-25 04:52:00,